Location: Newark
(54.2500°N, 9.1833°E)
Time: 03:08:00
(UTC+00:00)

Vanguard 2 Rocket - All Passes

Search period start: 11 December 2019 00:00
Search period end: 21 December 2019 00:00
Orbit: 554 x 3326 km, 32.9° (Epoch: 10 December)

Date Brightness Start Highest point End Pass type
(mag) Time Alt. Az. Time Alt. Az. Time Alt. Az.
11 Dec - 15:01:51 10° SSE 15:04:26 11° SSE 15:06:50 10° SE daylight
11 Dec - 17:09:32 10° SSW 17:17:42 18° S 17:23:47 10° SE visible
11 Dec - 19:24:07 10° SW 19:30:16 17° SSW 19:34:52 10° SSE visible
12 Dec - 16:09:01 10° SSW 16:17:49 18° SSE 16:24:31 10° SE visible
12 Dec - 18:22:36 10° SW 18:30:50 20° S 18:36:44 10° SE visible
12 Dec - 20:39:43 10° SW 20:42:42 12° SSW 20:45:15 10° S visible
13 Dec - 15:09:06 10° S 15:17:44 16° SSE 15:24:40 10° SE daylight
13 Dec - 17:21:16 10° SW 17:31:09 22° S 17:38:09 10° SE visible
13 Dec - 19:37:11 10° SW 19:43:36 17° SSW 19:48:23 10° SSE visible
14 Dec - 14:10:13 10° S 14:17:32 14° SSE 14:23:49 10° SE daylight
14 Dec - 16:20:09 10° SW 16:31:12 23° S 16:39:10 10° SE visible
14 Dec - 18:35:17 10° SW 18:44:12 22° SSW 18:50:29 10° SSE visible
15 Dec - 13:14:03 10° SSE 13:17:18 11° SE 13:20:23 10° SE daylight
15 Dec - 15:19:27 10° SSW 15:31:02 22° SSE 15:39:45 10° ESE visible
15 Dec - 17:33:34 10° SW 17:44:31 25° S 17:52:06 10° SE visible
15 Dec - 19:50:43 10° WSW 19:56:46 16° SSW 20:01:26 10° S visible
16 Dec - 14:19:22 10° SSW 14:30:41 20° SSE 14:39:44 10° ESE daylight
16 Dec - 16:32:02 10° SW 16:44:32 27° S 16:53:18 10° SE visible
16 Dec - 18:48:20 10° WSW 18:57:27 21° SSW 19:03:55 10° SSE visible
17 Dec - 13:20:16 10° S 13:30:17 17° SSE 13:38:52 10° ESE daylight
17 Dec - 15:30:50 10° SW 15:44:16 27° S 15:54:06 10° ESE visible
17 Dec - 17:46:16 10° WSW 17:57:48 26° SSW 18:05:44 10° SE visible
17 Dec - 20:04:50 10° WSW 20:09:45 14° SW 20:13:47 10° S visible
18 Dec - 12:22:57 10° SSE 12:29:55 13° SE 12:36:21 10° ESE daylight
18 Dec - 14:30:08 10° SSW 14:43:49 25° SSE 14:54:25 10° ESE daylight
18 Dec - 16:44:25 10° SW 16:57:48 29° S 17:07:06 10° SE visible
18 Dec - 19:01:44 10° WSW 19:10:31 20° SSW 19:16:57 10° SSE visible
19 Dec - 13:30:07 10° SSW 13:43:14 23° SSE 13:54:09 10° ESE daylight
19 Dec - 15:42:51 10° SW 15:57:29 30° S 16:08:02 10° ESE visible
19 Dec - 17:59:17 10° WSW 18:10:56 25° SSW 18:19:04 10° SSE visible
19 Dec - 20:20:40 10° SW 20:22:34 11° SW 20:24:19 10° SW visible
20 Dec - 12:31:04 10° S 12:42:41 19° SSE 12:53:03 10° ESE daylight
20 Dec - 14:41:44 10° SW 14:56:55 30° S 15:08:34 10° ESE daylight
20 Dec - 16:57:08 10° WSW 17:10:58 30° SSW 17:20:37 10° SE visible
20 Dec - 19:15:34 10° WSW 19:23:24 17° SW 19:29:26 10° S visible
